Regional Weather Roundup
Issued by NWS

Home | Current Version | Previous Version | Text Only | Print | Product List | Glossary On
Versions: 1 2 3 4 5 6 7 8 9 10 11 12 13 14 15 16 17 18 19 20 21 22 23 24 25 26 27 28 29 30 31 32 33 34 35 36 37 38 39 40 41 42 43 44 45 46 47 48 49 50
000
ASHW40 PHFO 020043
RWRHI

WEATHER ROUNDUP FOR HAWAII
NATIONAL WEATHER SERVICE HONOLULU HI
200 PM HST SUN MAR 01 2015

THIS IS AN AUTOMATED REPORT THAT HAS NOT BEEN QUALITY CONTROLLED.

NOTE..."FAIR" INDICATES FEW OR NO CLOUDS BELOW 12,000 FEET WITH NO
SIGNIFICANT WEATHER AND/OR OBSTRUCTIONS TO VISIBILITY.

* - THESE SITES REPORT LIMITED FIELDS

HIZ001>004-020100-
KAUAI-NIIHAU-

CITY           SKY/WX    TMP DP  RH WIND       PRES   REMARKS
LIHUE APT      MOSUNNY   80  63  55 N20       30.01F
PORT ALLEN*      N/A     82 N/A N/A W13         N/A
POIPU*         NOT AVBL
PRINCEVILLE*     N/A     72 N/A N/A MISG        N/A
KOKOLE POINT*  NOT AVBL
MOLOAA DAIRY*  NOT AVBL
WAIMEA HTS*      N/A     84  61  45 SW9G16      N/A
PUU OPAE*        N/A     72  57  60 NE8G15      N/A
PUU LUA*       NOT AVBL
MAKAHA RIDGE*  NOT AVBL
$$

HIZ005>011-020100-
OAHU-

CITY           SKY/WX    TMP DP  RH WIND       PRES   REMARKS
HONOLULU       MOSUNNY   84  63  49 NE13G21   29.95F
KALAELOA       MOSUNNY   83  62  49 VRB7      29.96F
KANEOHE MCB    PTSUNNY   78  67  68 N12       29.96F
WHEELER FIELD  FAIR      77  63  63 NE12      29.97F
BELLOWS*         N/A    N/A N/A N/A VRB9G15     N/A
KAHUKU*          N/A    N/A N/A N/A NE5G10      N/A
WHEELER*       NOT AVBL
WAIANAE HARBOR NOT AVBL
DILLINGHAM*      N/A     84  68  58 MISG        N/A
KAHUKU TRN*      N/A     66  57  72 NE7G15      N/A
KAWAILOA*        N/A     73  63  68 NE12G18     N/A
KII*             N/A     75  66  73 N10         N/A
MAKUA RANGE*     N/A     79  66  65 E15G26      N/A
OAHU FOREST NW   N/A    N/A N/A N/A CALM        N/A
SCHOFIELD BRK*   N/A     64  50  59 MISG        N/A
SCHOFIELD S*   NOT AVBL
WAIANAE VLY*     N/A     79  61  53 N9G22       N/A
KUAOKALA*        N/A    N/A N/A N/A CALM        N/A
HONOULIUULI*   NOT AVBL
MOKUOLOE IS*     N/A    N/A N/A N/A MISG        N/A
PALEHUA*         N/A     90  61  37 CALM        N/A
WAIAWA PHB*    NOT AVBL
$$

HIZ012>013-020100-
MOLOKAI-

CITY           SKY/WX    TMP DP  RH WIND       PRES   REMARKS
MOLOKAI AIRPT  PTSUNNY   75  70  83 N16G24    29.96F
KALAUPAPA      NOT AVBL
MAKAPULAPAI*     N/A     79  70  73 NE12        N/A
MOLOKAI 1*       N/A     70  66  88 N9G25       N/A
PUU ALII*        N/A     59  59 100 E2G8        N/A
$$

HIZ016-020100-
KAHOOLAWE-

CITY           SKY/WX    TMP DP  RH WIND       PRES   REMARKS
KAHOOLAWE*       N/A     73 N/A N/A NE16G26     N/A
HAKIOAWA*        N/A     75  67  76 MISG      30.36F
HONOKANAIA*      N/A     85  64  49 VRB16G25  29.95F
KANELOA*         N/A     79  66  65 MISG      29.18F
KEALIALALO*    NOT AVBL
LUA MAKIKA*    NOT AVBL
$$

HIZ014>015-020100-
LANAI-

CITY           SKY/WX    TMP DP  RH WIND       PRES   REMARKS
LANAI CITY     FAIR      78  65  64 NE21G28   29.99F
LANAI 1*         N/A     66  59  77 NE20G31     N/A
$$

HIZ017>028-020100-
MAUI-

CITY           SKY/WX    TMP DP  RH WIND       PRES   REMARKS
KAHULUI        MOSUNNY   80  68  66 N10       29.97F
KAPALUA-W MAUI LGT RAIN  75  72  88 NE18G24   29.97
HANA AIRPORT   MOSUNNY   77  68  73 W3        29.99F
HANA*            N/A     77 N/A N/A NW7         N/A
HALEAKALA SUMM   N/A     46  41  81 NW6         N/A
MAALAEA BAY*   NOT AVBL
HALEAKALA*     NOT AVBL
KAUPO GAP*       N/A     75  59  57 S8G15       N/A
KULA 1*          N/A     60  56  85 NW5         N/A
$$

HIZ023>026-020100-
BIG ISLAND OF HAWAII COAST AND LOWER SLOPES-

CITY           SKY/WX    TMP DP  RH WIND       PRES   REMARKS
KAILUA KONA    MOSUNNY   83  67  58 NW9       29.91F
HILO           TSTM      75  70  84 E6        29.94R
HONOKAA*       NOT AVBL
KAWAIHAE MWT*    N/A     86 N/A N/A S7          N/A
KAWAIHAE*        N/A     81 N/A N/A S8          N/A
SOUTH POINT*     N/A     77 N/A N/A E20G28      N/A
UPOLU AIRPORT*   N/A    N/A N/A N/A NE22G28     N/A
KAMUELA*       MOCLDY    72  63  73 NE24      30.02F
HAKALAU*         N/A     57  52  83 W3          N/A
KALOKO-HONOKO*   N/A     82  68  61 W8          N/A
PALI 2*          N/A     64  64 100 E12G23      N/A
KEALAKOMO*       N/A     81  66  61 E12G21      N/A
KAUPULEHU*       N/A     79  63  57 NW7G18      N/A
KAPAPALA*        N/A     68  65  91 E3G17       N/A
LOWER KAHUKU*    N/A     64  64 100 E3G10       N/A
PUHE CS*         N/A     84  64  51 S3          N/A
PUHO CS*         N/A     82  66  59 SW5G10      N/A
PTA KEAMUKU*     N/A     64  63  94 CALM        N/A
WAIKOLOA*        N/A     75  66  73 SE5G14      N/A
$$

HIZ027>028-020100-
BIG ISLAND OF HAWAII INTERIOR AND SUMMMITS-

CITY           SKY/WX    TMP DP  RH WIND       PRES   REMARKS
BRADSHAW FIELD PTSUNNY   65  53  65 SW10G20   30.22F
MK VISITOR CEN NOT AVBL
MAUNA KEA*       N/A     30  27  86 NW35G47     N/A  WCI  14
MAUNA LOA*       N/A     43  37  81 MISG        N/A
MAUNA LOA 1*   NOT AVBL
PTA KIPUKA*      N/A     64  57  77 N10G17      N/A
PTA RANGE 17*    N/A     63  55  77 NW15G22     N/A
PTA WEST*        N/A     63  59  88 NW14G22     N/A
NENE CABIN*      N/A     54 N/A N/A E7G14       N/A
AHUMOA*          N/A     65  55  71 N6G18       N/A
PTA PORTABLE*  NOT AVBL
PUU MALI*      NOT AVBL
$$

HIC003-020100-
NORTHWEST ISLANDS-

CITY           SKY/WX    TMP DP  RH WIND       PRES   REMARKS
MIDWAY ISLAND  MOSUNNY   66  48  52 NE12      30.31F
MIDWAY NOS*    NOT AVBL
FRENCH FRIGATE NOT AVBL
$$

PHZ110>124-180-020100-
BUOY REPORTS

STATION/POSITION TIME  TEMP    WIND        PRES    WAVE   SWELL
                       AIR SEA DIR/SP/G            HT/PER HT/DIR
                 (UTC) (F)     (DEG/KT/KT) (MB)    (FT/S) (FT/D)
BUOY 51001       NOT AVBL
BUOY 51101       0000   69 71   30/ 17/ 23 1019.2F  11/15  10/340
BUOY 51100       0000   74 76  120/  8/ 10 1015.2F
BUOY 51003       0000   76 78   50/ 19/ 21 1014.2F   7/ 7   3
BUOY 51004       NOT AVBL
BARBERS PT BUOY  NOT AVBL
WAIMEA BAY BUOY  0000      78                N/A     5/ 7   2/340
KAILUA BAY BUOY  0000      77                N/A     5/10   2/100
LANAI BUOY       0000      76                N/A     3/12   2/190
BARBERS PT 2     0000      78                N/A     3/10   2/190
PAUWELA MAUI     0000      75                N/A     6/10   2/ 80
HILO             0000      78                N/A     6/ 9   2/110
KANEOHE BAY BUOY 0000      77                N/A     5/ 9   2/ 50
HANALEI KAUAI    NOT AVBL
KAHULUI HARBOR   0000   74 76  360/  9/ 10 1014.4F
HONOLULU HARBOR  0000   78 76   30/  4/ 13 1013.9F
KILO NALU        NOT AVBL
HILO HARBOR      NOT AVBL
MOKUOLOE         0000      76              1015.3F
NAWILIWILI       0000   75 78   30/ 15/ 20 1015.5F
WHOTS BUOY       NOT AVBL
BUOY 51028       NOT AVBL
$$

......................KEY........................................
  SKY/WX - SKY CONDITIONS/PRESENT WEATHER
  TMP    - TEMPERATURE IN FAHRENHEIT
  DWPT   - DEWPOINT IN FAHRENHEIT
  RH     - RELATIVE HUMIDITY IN PERCENT
  WIND   - DIRECTION AND SPEED /MPH FOR ISLANDS...KTS FOR BUOYS/
  PRES   - MEAN SEA LEVEL PRESSURE IN INCHES OF HG
  VSB    - VISIBILITY IN MILES
  HX     - HEAT INDEX
  WCI    - WIND CHILL INDEX
  VRB    - VARIABLE WIND DIRECTION
  N/A    - NOT AVAILABLE


USA.gov is the U.S. government's official web portal to all federal, state and local government web resources and services.